Find STARLINK-37948

NORAD ID: 799501021 Int'l Des: 2026-143X Constellation: starlink operational

現在のビュー

3D地球を読み込み中...

About STARLINK-37948

STARLINK-37948 (NORAD 799501021) is a starlink constellation satellite launched Jun 15, 2026

STARLINK-37948について

説明を読み込み中...

次回通過

Passes for default location (London). Set your location on the main map for personalized predictions.

高度履歴

Loading altitude history...

軌道要素

1 99999C 2026143X 26173.17409721 .00483810 00000-0 721980-4 0 1732
2 99999 97.2816 216.0344 0011233 272.9539 105.5605 16.04425753 17
Epoch: Jun 22, 2026 • Age: 5 hours